Meteo orario Aalen

Oggi, 9 Marzo, Martedi

Tempo Temperatura Precipitazioni Vento Pressione Umidità
00:00 -1°C° 0 mm 1 m/s 722 mm Hg 90%
01:00 -1°C° 0 mm 1 m/s 722 mm Hg 91%
02:00 -1°C° 0 mm 1 m/s 721 mm Hg 90%
03:00 -1°C° 0 mm 1 m/s 721 mm Hg 90%
04:00 -1°C° 0 mm 1 m/s 721 mm Hg 90%
05:00 -2°C° 0 mm 0 m/s 721 mm Hg 89%
06:00 -2°C° 0 mm 0 m/s 721 mm Hg 88%
07:00 -2°C° 0 mm 0 m/s 721 mm Hg 87%
08:00 0°C° 0 mm 0 m/s 721 mm Hg 80%
09:00 +1°C° 0 mm 0 m/s 721 mm Hg 73%
10:00 +3°C° 0 mm 0 m/s 721 mm Hg 67%
11:00 +3°C° 0 mm 0 m/s 721 mm Hg 64%
12:00 +4°C° 0 mm 0 m/s 721 mm Hg 60%
13:00 +5°C° 0 mm 0 m/s 721 mm Hg 57%
14:00 +5°C° 0 mm 0 m/s 721 mm Hg 57%
15:00 +6°C° 0 mm 1 m/s 721 mm Hg 58%
16:00 +6°C° 0 mm 1 m/s 721 mm Hg 58%
17:00 +5°C° 0 mm 1 m/s 721 mm Hg 64%
18:00 +4°C° 0 mm 1 m/s 721 mm Hg 70%
19:00 +3°C° 0 mm 1 m/s 721 mm Hg 75%
20:00 +2°C° 0 mm 1 m/s 721 mm Hg 81%
21:00 +2°C° 0 mm 1 m/s 722 mm Hg 88%
22:00 +2°C° 0 mm 1 m/s 722 mm Hg 94%
23:00 +1°C° 0.3 mm 2 m/s 722 mm Hg 95%

Domani, 10 Marzo, Mercoledi

Tempo Temperatura Precipitazioni Vento Pressione Umidità
00:00 +1°C° 0.3 mm 2 m/s 722 mm Hg 96%
01:00 +1°C° 0.3 mm 2 m/s 722 mm Hg 97%
02:00 +1°C° 0.2 mm 2 m/s 722 mm Hg 97%
03:00 0°C° 0.2 mm 3 m/s 722 mm Hg 97%
04:00 0°C° 0.2 mm 3 m/s 722 mm Hg 97%
05:00 0°C° 0.2 mm 3 m/s 722 mm Hg 97%
06:00 0°C° 0.2 mm 3 m/s 722 mm Hg 97%
07:00 0°C° 0.2 mm 3 m/s 723 mm Hg 97%
08:00 +1°C° 0.2 mm 3 m/s 723 mm Hg 94%
09:00 +1°C° 0.2 mm 3 m/s 723 mm Hg 92%
10:00 +1°C° 0.2 mm 3 m/s 723 mm Hg 90%
11:00 +2°C° 0.1 mm 3 m/s 723 mm Hg 87%
12:00 +3°C° 0.1 mm 3 m/s 723 mm Hg 83%
13:00 +3°C° 0.1 mm 3 m/s 723 mm Hg 80%
14:00 +4°C° 0.1 mm 3 m/s 723 mm Hg 78%
15:00 +4°C° 0.1 mm 3 m/s 723 mm Hg 76%
16:00 +5°C° 0.1 mm 3 m/s 723 mm Hg 73%
17:00 +4°C° 0 mm 2 m/s 722 mm Hg 77%
18:00 +4°C° 0 mm 1 m/s 722 mm Hg 81%
19:00 +3°C° 0 mm 1 m/s 722 mm Hg 85%
20:00 +3°C° 0 mm 1 m/s 722 mm Hg 85%
21:00 +3°C° 0 mm 1 m/s 722 mm Hg 85%
22:00 +2°C° 0 mm 2 m/s 722 mm Hg 84%
23:00 +2°C° 0 mm 2 m/s 722 mm Hg 84%

Dopodomani, 11 Marzo, Giovedi

Tempo Temperatura Precipitazioni Vento Pressione Umidità
00:00 +2°C° 0 mm 2 m/s 721 mm Hg 85%
01:00 +2°C° 0 mm 2 m/s 721 mm Hg 85%
02:00 +2°C° 0 mm 2 m/s 720 mm Hg 83%
03:00 +1°C° 0 mm 3 m/s 720 mm Hg 82%
04:00 +2°C° 0 mm 3 m/s 719 mm Hg 81%
05:00 +2°C° 0 mm 3 m/s 719 mm Hg 79%
06:00 +3°C° 0 mm 4 m/s 719 mm Hg 77%
07:00 +3°C° 0 mm 4 m/s 718 mm Hg 76%
08:00 +3°C° 0.1 mm 5 m/s 718 mm Hg 76%
09:00 +3°C° 0.1 mm 5 m/s 718 mm Hg 77%
10:00 +5°C° 0.1 mm 5 m/s 718 mm Hg 77%
11:00 +7°C° 0 mm 6 m/s 717 mm Hg 74%
12:00 +9°C° 0 mm 7 m/s 717 mm Hg 71%
13:00 +11°C° 0 mm 8 m/s 716 mm Hg 68%
14:00 +10°C° 0 mm 7 m/s 716 mm Hg 70%
15:00 +10°C° 0 mm 6 m/s 715 mm Hg 72%
16:00 +10°C° 0 mm 5 m/s 714 mm Hg 74%
17:00 +9°C° 0.6 mm 6 m/s 715 mm Hg 79%
18:00 +9°C° 0.6 mm 6 m/s 715 mm Hg 84%
19:00 +8°C° 0.6 mm 6 m/s 715 mm Hg 89%
20:00 +6°C° 1.2 mm 7 m/s 715 mm Hg 88%
21:00 +5°C° 1.2 mm 7 m/s 716 mm Hg 86%
22:00 +5°C° 1.2 mm 7 m/s 716 mm Hg 84%
23:00 +4°C° 0.4 mm 7 m/s 717 mm Hg 86%

12 Marzo, Venerdi

Tempo Temperatura Precipitazioni Vento Pressione Umidità
00:00 +3°C° 0.4 mm 6 m/s 718 mm Hg 87%
01:00 +3°C° 0.4 mm 6 m/s 719 mm Hg 89%
02:00 +2°C° 0.1 mm 6 m/s 719 mm Hg 88%
03:00 +2°C° 0.1 mm 5 m/s 719 mm Hg 88%
04:00 +1°C° 0.1 mm 5 m/s 719 mm Hg 87%
05:00 +1°C° 0 mm 4 m/s 720 mm Hg 88%
06:00 0°C° 0 mm 4 m/s 720 mm Hg 89%
07:00 0°C° 0 mm 4 m/s 720 mm Hg 90%
08:00 +1°C° 0 mm 4 m/s 720 mm Hg 84%
09:00 +2°C° 0 mm 5 m/s 720 mm Hg 78%
10:00 +3°C° 0 mm 6 m/s 720 mm Hg 72%
11:00 +4°C° 0.1 mm 6 m/s 720 mm Hg 68%
12:00 +5°C° 0.1 mm 6 m/s 720 mm Hg 64%
13:00 +7°C° 0.1 mm 6 m/s 720 mm Hg 60%
14:00 +7°C° 0.1 mm 6 m/s 720 mm Hg 60%
15:00 +7°C° 0.1 mm 6 m/s 719 mm Hg 60%
16:00 +7°C° 0.1 mm 6 m/s 719 mm Hg 59%
17:00 +6°C° 0 mm 5 m/s 719 mm Hg 66%
18:00 +4°C° 0 mm 4 m/s 719 mm Hg 72%
19:00 +3°C° 0 mm 3 m/s 719 mm Hg 78%
20:00 +3°C° 0 mm 4 m/s 719 mm Hg 79%
21:00 +3°C° 0 mm 4 m/s 719 mm Hg 79%
22:00 +2°C° 0 mm 5 m/s 719 mm Hg 80%
23:00 +2°C° 0 mm 5 m/s 719 mm Hg 81%

13 Marzo, Sabato

Tempo Temperatura Precipitazioni Vento Pressione Umidità
00:00 +2°C° 0 mm 5 m/s 719 mm Hg 82%
01:00 +2°C° 0 mm 5 m/s 719 mm Hg 83%
02:00 +2°C° 0.2 mm 5 m/s 718 mm Hg 84%
03:00 +2°C° 0.2 mm 5 m/s 718 mm Hg 86%
04:00 +2°C° 0.2 mm 5 m/s 718 mm Hg 87%
05:00 +2°C° 0.1 mm 5 m/s 718 mm Hg 85%
06:00 +2°C° 0.1 mm 6 m/s 718 mm Hg 84%
07:00 +2°C° 0.1 mm 6 m/s 718 mm Hg 83%
08:00 +3°C° 0 mm 7 m/s 718 mm Hg 79%
09:00 +4°C° 0 mm 7 m/s 717 mm Hg 74%
10:00 +5°C° 0 mm 8 m/s 717 mm Hg 70%
11:00 +5°C° 0 mm 8 m/s 717 mm Hg 68%
12:00 +6°C° 0 mm 9 m/s 716 mm Hg 65%
13:00 +6°C° 0 mm 9 m/s 716 mm Hg 62%
14:00 +6°C° 0 mm 8 m/s 716 mm Hg 62%
15:00 +6°C° 0 mm 8 m/s 715 mm Hg 62%
16:00 +8°C° 0 mm 7 m/s 714 mm Hg 62%
17:00 +6°C° 0 mm 7 m/s 714 mm Hg 65%
18:00 +5°C° 0 mm 6 m/s 714 mm Hg 69%
19:00 +5°C° 0 mm 5 m/s 713 mm Hg 72%
20:00 +4°C° 0 mm 6 m/s 713 mm Hg 73%
21:00 +4°C° 0 mm 6 m/s 713 mm Hg 73%
22:00 +4°C° 0 mm 7 m/s 712 mm Hg 74%
23:00 +3°C° 0.7 mm 7 m/s 712 mm Hg 80%

14 Marzo, Domenica

Tempo Temperatura Precipitazioni Vento Pressione Umidità
00:00 +2°C° 0.7 mm 8 m/s 712 mm Hg 85%
01:00 +1°C° 0.7 mm 9 m/s 712 mm Hg 91%
02:00 0°C° 0.4 mm 7 m/s 712 mm Hg 90%
03:00 -1°C° 0.4 mm 6 m/s 712 mm Hg 89%
04:00 0°C° 0.4 mm 5 m/s 713 mm Hg 87%
05:00 -1°C° 0.1 mm 5 m/s 713 mm Hg 88%
06:00 -2°C° 0.1 mm 6 m/s 714 mm Hg 88%
07:00 -2°C° 0.1 mm 6 m/s 714 mm Hg 89%
08:00 -2°C° 0 mm 7 m/s 715 mm Hg 87%
09:00 -1°C° 0 mm 7 m/s 716 mm Hg 86%
10:00 -1°C° 0 mm 8 m/s 716 mm Hg 84%
11:00 0°C° 0 mm 8 m/s 717 mm Hg 80%
12:00 +1°C° 0 mm 8 m/s 717 mm Hg 76%
13:00 +1°C° 0 mm 8 m/s 717 mm Hg 72%
14:00 +1°C° 0.1 mm 8 m/s 717 mm Hg 71%
15:00 +2°C° 0.1 mm 9 m/s 717 mm Hg 69%
16:00 +2°C° 0.1 mm 9 m/s 717 mm Hg 68%
17:00 +1°C° 0.1 mm 8 m/s 717 mm Hg 74%
18:00 0°C° 0.1 mm 8 m/s 717 mm Hg 81%
19:00 -1°C° 0.1 mm 7 m/s 717 mm Hg 87%
20:00 -1°C° 0.7 mm 7 m/s 718 mm Hg 90%
21:00 -1°C° 0.7 mm 7 m/s 718 mm Hg 93%
22:00 -1°C° 0.7 mm 7 m/s 718 mm Hg 96%
23:00 -1°C° 0.4 mm 7 m/s 718 mm Hg 95%
Mostrare altro

Abbiamo bisogno del tuo consenso

Meteoprog e i nostri fornitori di servizi possono memorizzare e accedere a dati personali come cookie, identificatori di dispositivi o altre tecnologie simili sul tuo dispositivo e possono elaborare tali dati per personalizzare i contenuti e gli annunci, nonché fornire funzionalità dei social media e analizzarne il traffico.

  • Archiviare e/o accedere alle informazioni sul tuo dispositivo

    Cookie, identificatori di dispositivi o altre informazioni possono essere memorizzati o resi accessibili sul tuo dispositivo per le finalità sopra indicate.

  • Annunci e contenuti personalizzati, misurazione di annunci e contenuti, approfondimenti sul pubblico e sviluppo di prodotti

    Gli annunci e i contenuti possono essere personalizzati in base a un profilo. È possibile aggiungere più dati per personalizzare meglio annunci e contenuti. È possibile misurare il rendimento degli annunci e dei contenuti. È possibile ricavare informazioni sul pubblico che ha visto gli annunci e i contenuti. Tali dati possono essere utilizzati per sviluppare o migliorare l'esperienza, i sistemi e il software dell'utente.

Cliccando su “Accetto”, acconsenti all'uso di cookie, identificatori di dispositivo, web beacon o altre tecnologie simili. Puoi modificare le impostazioni nel browser del tuo dispositivo.

Per determinati scopi, è possibile fare affidamento su interessi legali, piuttosto che sul consenso. Puoi approfondire questo argomento consultando la nostra Informativa sulla privacy e sui cookie.